Weather History for KGUC - February, 2014

Change the Weather History Date:

Wednesday, February 12, 2014

  Actual Average Record
Temperature  
Mean Temperature 4 °F -  
Max Temperature 19 °F 27 °F 41 °F (2002)
Min Temperature -11 °F 2 °F -22 °F (2006)
Degree Days  
Heating Degree Days 61    
Moisture  
Dew Point -3 °F    
Average Humidity 64    
Maximum Humidity 92    
Minimum Humidity 32    
Precipitation  
Precipitation 0.00 in - - ()
Sea Level Pressure  
Sea Level Pressure 30.24 in    
Wind  
Wind Speed 1 mph (East)    
Max Wind Speed 7 mph    
Max Gust Speed -    
Visibility 10 miles    
Events      
Averages and records for this station are not official NWS values.
T = Trace of Precipitation, MM = Missing Value Source: NWS Daily Summary

Daily Weather History Graph

Daily Weather History Graph

Search for Another Location

Airport or City:

Trip Planner

Search our weather history database for the weather conditions in past years. The results will help you decide how hot, cold, wet, or windy it might be!

Date:

Astronomy

Feb. 12, 2014 Rise Set
Actual Time 7:01 AM MST 5:42 PM MST
Civil Twilight 6:34 AM MST 6:09 PM MST
Nautical Twilight 6:03 AM MST 6:41 PM MST
Astronomical Twilight 5:32 AM MST 7:11 PM MST
Moon 3:59 PM MST (2/12) 5:19 AM MST (2/12)
Length of Visible Light 11h 35m
Length of Day
10h 40m
Waxing Gibbous, 96% of the Moon is Illuminated
Feb 12
Waxing Gibbous
Feb 14
Full
Feb 22
Last Quarter
Mar 1
New
Mar 8
First Quarter

Hourly Weather History & Observations

Time (MST) Temp. Windchill Dew Point Humidity Pressure Visibility Wind Dir Wind Speed Gust Speed Precip Events Conditions
12:15 AM -0.4 °F - -22.0 °F 36% 30.27 in 10.0 mi Calm Calm - N/A   Clear
12:35 AM -0.4 °F - -5.8 °F 78% 30.27 in 10.0 mi Calm Calm - N/A   Clear
12:55 AM 1.4 °F - -7.6 °F 66% 30.28 in 10.0 mi Calm Calm - N/A   Clear
1:15 AM 1.4 °F - -0.4 °F 92% 30.29 in 10.0 mi Calm Calm - N/A   Clear
1:35 AM -2.2 °F - -18.4 °F 46% 30.29 in 10.0 mi Calm Calm - N/A   Clear
1:55 AM -2.2 °F - -5.8 °F 85% 30.29 in 10.0 mi Calm Calm - N/A   Clear
2:15 AM -2.2 °F - -25.6 °F 32% 30.29 in 10.0 mi Calm Calm - N/A   Clear
2:35 AM -2.2 °F - -7.6 °F 78% 30.29 in 10.0 mi Calm Calm - N/A   Clear
2:55 AM -2.2 °F - -20.2 °F 42% 30.29 in 10.0 mi Calm Calm - N/A   Clear
3:15 AM -2.2 °F - -20.2 °F 42% 30.29 in 10.0 mi Calm Calm - N/A   Clear
3:35 AM -5.8 °F -19.9 °F -25.6 °F 38% 30.29 in 10.0 mi NE 6.9 mph - N/A   Clear
3:55 AM -5.8 °F - -25.6 °F 38% 30.28 in 10.0 mi Calm Calm - N/A   Clear
4:15 AM -5.8 °F -14.5 °F -18.4 °F 55% 30.28 in 10.0 mi ENE 3.5 mph - N/A   Clear
4:35 AM -4.0 °F -14.6 °F -11.2 °F 71% 30.28 in 10.0 mi NE 4.6 mph - N/A   Clear
4:55 AM -7.6 °F -16.5 °F -18.4 °F 59% 30.28 in 10.0 mi East 3.5 mph - N/A   Clear
5:15 AM -5.8 °F -16.7 °F - N/A% 30.30 in 10.0 mi NE 4.6 mph - N/A   Clear
5:35 AM -7.6 °F -16.5 °F - N/A% 30.29 in 10.0 mi North 3.5 mph - N/A   Clear
5:55 AM -5.8 °F - -27.4 °F 35% 30.29 in 10.0 mi Calm Calm - N/A   Clear
6:15 AM -7.6 °F -20.6 °F -27.4 °F 38% 30.31 in 10.0 mi East 5.8 mph - N/A   Clear
6:35 AM -11.2 °F - - N/A% 30.31 in 10.0 mi Calm Calm - N/A   Scattered Clouds
6:55 AM -7.6 °F - -29.2 °F 34% 30.30 in 10.0 mi Calm Calm - N/A   Mostly Cloudy
7:15 AM -7.6 °F -16.5 °F -18.4 °F 59% 30.30 in 10.0 mi NNE 3.5 mph - N/A   Partly Cloudy
7:35 AM -7.6 °F - -20.2 °F 54% 30.32 in 10.0 mi Calm Calm - N/A   Clear
7:55 AM -7.6 °F -18.8 °F -20.2 °F 54% 30.31 in 10.0 mi ENE 4.6 mph - N/A   Clear
8:15 AM -7.6 °F -16.5 °F -16.6 °F 65% 30.32 in 10.0 mi East 3.5 mph - N/A   Clear
8:35 AM -9.4 °F - - N/A% 30.31 in 9.0 mi Calm Calm - N/A   Scattered Clouds
8:55 AM -5.8 °F - - N/A% 30.31 in 10.0 mi Calm Calm - N/A   Partly Cloudy
9:15 AM -5.8 °F -14.5 °F -25.6 °F 38% 30.30 in 10.0 mi East 3.5 mph - N/A   Clear
9:35 AM -5.8 °F - -25.6 °F 38% 30.31 in 10.0 mi Calm Calm - N/A   Clear
9:55 AM -4.0 °F - -20.2 °F 46% 30.31 in 10.0 mi Calm Calm - N/A   Clear
10:15 AM 1.4 °F - -22.0 °F 33% 30.31 in 10.0 mi Calm Calm - N/A   Clear
10:35 AM -0.4 °F - -18.4 °F 43% 30.31 in 10.0 mi Calm Calm - N/A   Mostly Cloudy
10:55 AM -0.4 °F - -9.4 °F 66% 30.29 in 10.0 mi Calm Calm - N/A   Partly Cloudy
11:15 AM 3.2 °F - -5.8 °F 66% 30.28 in 10.0 mi Calm Calm - N/A   Clear
11:35 AM 5.0 °F -4.1 °F -7.6 °F 56% 30.27 in 6.0 mi East 4.6 mph - N/A   Clear
11:55 AM 5.0 °F -2.1 °F -5.8 °F 61% 30.25 in 10.0 mi SE 3.5 mph - N/A   Clear
12:15 PM 6.8 °F -0.1 °F - N/A% 30.25 in 10.0 mi SE 3.5 mph - N/A   Scattered Clouds
12:35 PM 6.8 °F -2.0 °F 1.4 °F 79% 30.23 in 10.0 mi SSE 4.6 mph - N/A   Overcast
12:55 PM 8.6 °F 0.1 °F -0.4 °F 67% 30.22 in 10.0 mi South 4.6 mph - N/A   Overcast
1:15 PM 10.4 °F 4.0 °F 3.2 °F 73% 30.21 in 10.0 mi ESE 3.5 mph - N/A   Overcast
1:35 PM 10.4 °F - 5.0 °F 79% 30.20 in 10.0 mi Calm Calm - N/A   Overcast
1:55 PM 12.2 °F 6.1 °F 3.2 °F 67% 30.19 in 10.0 mi SE 3.5 mph - N/A   Overcast
2:15 PM 12.2 °F 4.3 °F 6.8 °F 79% 30.18 in 10.0 mi South 4.6 mph - N/A   Overcast
2:35 PM 14.0 °F 8.2 °F 6.8 °F 73% 30.17 in 10.0 mi ESE 3.5 mph - N/A   Overcast
2:55 PM 15.8 °F - 6.8 °F 68% 30.17 in 10.0 mi Calm Calm - N/A   Overcast
3:15 PM 15.8 °F - 8.6 °F 73% 30.18 in 10.0 mi Calm Calm - N/A   Overcast
3:35 PM 15.8 °F 7.2 °F 8.6 °F 73% 30.17 in 10.0 mi East 5.8 mph - N/A   Overcast
3:55 PM 17.6 °F 9.3 °F 8.6 °F 68% 30.17 in 10.0 mi ENE 5.8 mph - N/A   Overcast
4:15 PM 17.6 °F 8.2 °F 10.4 °F 73% 30.17 in 10.0 mi ENE 6.9 mph - N/A   Overcast
4:35 PM 15.8 °F - 8.6 °F 73% 30.17 in 10.0 mi Calm Calm - N/A   Overcast
4:55 PM 17.6 °F - 10.4 °F 73% 30.17 in 10.0 mi Calm Calm - N/A   Overcast
5:15 PM 17.6 °F - 10.4 °F 73% 30.17 in 10.0 mi Calm Calm - N/A   Overcast
5:35 PM 17.6 °F 9.3 °F 10.4 °F 73% 30.18 in 10.0 mi NNE 5.8 mph - N/A   Overcast
5:55 PM 17.6 °F 12.3 °F 10.4 °F 73% 30.18 in 10.0 mi ENE 3.5 mph - N/A   Overcast
6:15 PM 17.6 °F 9.3 °F 10.4 °F 73% 30.17 in 10.0 mi ENE 5.8 mph - N/A   Overcast
6:35 PM 17.6 °F - 10.4 °F 73% 30.18 in 10.0 mi Calm Calm - N/A   Overcast
6:55 PM 17.6 °F - 10.4 °F 73% 30.18 in 10.0 mi Calm Calm - N/A   Overcast
7:15 PM 17.6 °F - 10.4 °F 73% 30.18 in 10.0 mi Calm Calm - N/A   Overcast
7:35 PM 17.6 °F - 10.4 °F 73% 30.18 in 10.0 mi Calm Calm - N/A   Overcast
7:55 PM 17.6 °F - 12.2 °F 79% 30.16 in 10.0 mi Calm Calm - N/A   Overcast
8:15 PM 17.6 °F 12.3 °F 10.4 °F 73% 30.17 in 10.0 mi North 3.5 mph - N/A   Overcast
8:35 PM 19.4 °F 11.5 °F 12.2 °F 74% 30.18 in 10.0 mi NNE 5.8 mph - N/A   Overcast
8:55 PM 19.4 °F 12.8 °F 12.2 °F 74% 30.19 in 10.0 mi East 4.6 mph - N/A   Overcast
9:15 PM 19.4 °F 12.8 °F 12.2 °F 74% 30.20 in 10.0 mi SSE 4.6 mph - N/A   Overcast
9:35 PM 19.4 °F - 12.2 °F 74% 30.19 in 10.0 mi Calm Calm - N/A   Overcast
9:55 PM 19.4 °F - 12.2 °F 74% 30.20 in 10.0 mi Calm Calm - N/A   Overcast
10:15 PM 19.4 °F - 12.2 °F 74% 30.21 in 10.0 mi Calm Calm - N/A   Overcast
10:35 PM 19.4 °F - 12.2 °F 74% 30.20 in 10.0 mi Calm Calm - N/A   Overcast
10:55 PM 19.4 °F - 14.0 °F 80% 30.20 in 10.0 mi Calm Calm - N/A   Overcast
11:15 PM 19.4 °F - 12.2 °F 74% 30.20 in 10.0 mi Calm Calm - N/A   Overcast
11:35 PM 19.4 °F - 12.2 °F 74% 30.19 in 10.0 mi Calm Calm - N/A   Overcast
11:55 PM 19.4 °F - 14.0 °F 80% 30.20 in 10.0 mi Calm Calm - N/A   Overcast